Welcome to the New NWS' Forecast!
Most changes are behind the scenes, but click here for differences you might notice.
Latest weather observations around

Kansas City, Kansas City Downtown Airport (KMKC)

Using English Units (Switch to International System of Units)
Date/ Time (CST) Wind (mph) Vis. (mi) Weather Sky Cond. Temp (°F) Rel. Humidity Wind Chill (°F) Heat Index (°F) Pressure Precip. (in)
Air Dwpt 6 hour Altimeter (inHg) Sea level (inHg) 1 hr 3 hr 6 hr
Max Min
Jan 21 21:41 S 8 10 Thunderstorms CLR 60 53     78%     29.56        
Jan 21 20:54 SSE 14 10 Clear CLR 61 52     72%     29.57 29.56   0  
Jan 21 19:54 ENE 5 10 Cloudy BKN046 BKN065 OVC095 57 49     74%     29.6 29.59 0    
Jan 21 18:54 ESE 5 7 Light Rain SCT041 BKN049 OVC075 61 50     67%     29.61 29.6 0    
Jan 21 17:54 ESE 5 10 Clear CLR 62 49     62%     29.62 29.62      
Jan 21 16:54 SE 5 10 Clear CLR 65 50     58%     29.63 29.62      
Jan 21 15:54 SSW 9 10 Cloudy FEW037 SCT045 OVC055 65 50     58%     29.67 29.67      
Jan 21 14:54 SSW 7 10 Mostly Cloudy BKN046 64 50     60%     29.68 29.67      
Jan 21 13:54 Calm 10 Cloudy SCT030 OVC037 59 50     72%     29.69 29.69      
Jan 21 12:54 Calm 10 Cloudy SCT028 OVC037 59 50     72%     29.71 29.71      
Jan 21 11:54 ESE 3 10 Cloudy FEW026 OVC039 57 50     77%     29.75 29.75      
Jan 21 10:54 ESE 5 10 Cloudy FEW025 OVC031 55 49     80%     29.78 29.78      
Jan 21 09:54 SE 6 10 Cloudy SCT021 OVC028 54 48     80%     29.78 29.78      
Jan 21 08:54 E 3 10 Cloudy BKN019 OVC027 52 47     83%     29.78 29.78      
Jan 21 07:54 ESE 3 9 Cloudy SCT017 OVC027 50 46     86% 49   29.78 29.78      
Jan 21 06:54 Calm 10 Cloudy BKN021 OVC026 50 46     86%     29.79 29.79      
Jan 21 05:54 ENE 5 9 Cloudy OVC026 47 43     86% 45   29.79 29.79      
Jan 21 04:54 ENE 6 8 Cloudy OVC024 45 42     90% 42   29.8 29.79      
Jan 21 03:54 E 7 8 Cloudy OVC021 44 40     85% 40   29.81 29.8      
Jan 21 02:54 ENE 6 8 Cloudy OVC019 44 40     85% 41   29.82 29.82      
Jan 21 02:22 E 6 8 Cloudy OVC015 43 40     89% 39   29.81        
Jan 21 01:54 E 5 8 Cloudy OVC013 43 40     89% 40   29.82 29.82      
Jan 21 01:11 E 7 6 Fog/Mist BKN014 42 39     89% 38   29.82        
Jan 21 00:54 E 5 6 Fog/Mist CLR 41 38     89% 38   29.82 29.83      
Jan 20 23:54 E 5 8 Clear CLR 42 39     89% 39   29.83 29.84      
Jan 20 22:54 E 3 9 Clear CLR 44 40     85% 43   29.84 29.84      
Jan 20 20:54 E 3 9 Clear CLR 46 41     82% 45   29.84 29.85      
Jan 20 19:54 E 3 10 Clear CLR 47 42     83% 46   29.85 29.85      
Jan 20 18:54 Calm 10 Clear CLR 50 43     77%     29.85 29.85      
Jan 20 17:54 E 5 10 Cloudy OVC030 53 44     71%     29.85 29.85      
Jan 20 16:54 E 3 10 Cloudy OVC033 54 44     69%     29.84 29.84      
Jan 20 16:42 E 3 10 Cloudy SCT028 OVC033 54 44     69%     29.84        
Jan 20 15:54 SE 3 10 Cloudy OVC029 54 44     69%     29.84 29.83      
Jan 20 14:54 S 7 10 Cloudy OVC026 54 44     69%     29.84 29.83      
Jan 20 13:54 S 5 10 Cloudy OVC024 53 43     69%     29.84 29.84      
Jan 20 12:54 S 6 10 Cloudy OVC022 52 43     71%     29.86 29.86      
Jan 20 11:54 SSW 10 10 Cloudy OVC021 52 43     71%     29.89 29.89      
Jan 20 10:54 S 10 10 Cloudy OVC026 52 43     71%     29.91 29.91      
Jan 20 09:54 S 10 10 Cloudy OVC025 50 42     74% 46   29.91 29.91      
Jan 20 08:54 S 7 9 Cloudy OVC024 49 42     77% 46   29.89 29.9      
Jan 20 07:54 SSW 3 9 Cloudy OVC021 46 41     82% 45   29.89 29.89      
Jan 20 06:54 S 5 10 Cloudy OVC016 46 40     79% 44   29.88 29.88      
Jan 20 06:36 SSW 6 10 Cloudy OVC015 46 40     79% 43   29.88        
Jan 20 05:54 SW 8 10 Cloudy OVC013 46 40     79% 42   29.88 29.88      
Jan 20 04:54 SW 11 10 Cloudy OVC013 45 39     80% 39   29.87 29.87      
Jan 20 04:24 SSW 10 10 Cloudy OVC014 45 38     76% 40   29.86        
Jan 20 03:54 SSW 8 10 Mostly Cloudy BKN017 44 38     79% 40   29.86 29.86      
Jan 20 03:49 SSW 8 10 Mostly Cloudy BKN017 45 37     76% 40   29.86        
Jan 20 02:54 SSW 7 10 Clear CLR 43 36     76% 39   29.86 29.86      
Jan 20 01:54 SSW 8 10 Clear CLR 43 35     73% 38   29.85 29.85      
Jan 20 00:54 SSW 10 10 Clear CLR 44 34     67% 39   29.85 29.85      
Jan 19 23:54 SSW 11 10 Clear CLR 45 32     60% 39   29.84 29.85      
Jan 19 22:54 SW 13 10 Clear CLR 45 31     58% 39   29.85 29.85      
Jan 19 21:54 SW 13 10 Clear CLR 46 29     51% 40   29.84 29.84      
Jan 19 20:54 SSW 11 10 Clear CLR 46 27     47% 41   29.82 29.83      
Jan 19 19:54 SSW 15 10 Clear CLR 45 27     49% 38   29.81 29.82      
Jan 19 18:54 S 11 10 Clear CLR 45 28     51% 39   29.82 29.83      
Jan 19 17:54 S 10 10 Clear CLR 46 27     47% 41   29.81 29.81      
Jan 19 16:54 SSW 16 10 Clear CLR 49 26     41% 43   29.81 29.81      
Jan 19 15:54 SSW 15 10 Clear CLR 50 26     39% 45   29.82 29.82      
Jan 19 14:54 S 16 10 Clear CLR 52 25     35%     29.82 29.83      
Jan 19 13:54 S 13 10 Clear CLR 51 25     36%     29.84 29.85      
Jan 19 12:54 SSW 13 10 Clear CLR 48 24     39% 43   29.87 29.88      
Jan 19 11:54 SSW 15 10 Clear CLR 45 22     40% 38   29.91 29.92      
Jan 19 10:54 SSW 15 10 Clear CLR 42 21     43% 35   29.94 29.96      
Jan 19 08:54 S 10 10 Clear CLR 35 18     49% 27   29.95 29.97      
Jan 19 07:54 SSW 11 10 Clear CLR 33 17     51% 24   29.96 29.98      
Jan 19 06:54 SSW 8 10 Clear CLR 33 17     51% 26   29.95 29.97      
Jan 19 05:54 SW 10 10 Clear CLR 35 17     47% 27   29.97 29.98      
Jan 19 04:54 SSW 13 10 Clear CLR 36 18     48% 27   29.97 29.98      
Jan 19 03:54 SW 13 10 Clear CLR 36 18     48% 27   29.98 29.99      
Jan 19 02:54 SW 15 10 Clear CLR 37 18     46% 28   29.99 30.01      
Jan 19 01:54 SSW 10 10 Clear CLR 38 18     44% 31   30 30.01      
Jan 19 00:54 SSW 11 10 Clear CLR 38 18     44% 30   30.01 30.02      
Jan 18 23:54 SSW 7 10 Clear CLR 37 19     48% 32   30.02 30.03      
Jan 18 22:54 SSW 8 10 Clear CLR 37 19     48% 31   30.05 30.06      
Jun 12 04:54 S 9 10 Clear CLR 74 65     74%   74 29.89 29.86      
Jun 11 15:54   10 Clear CLR 92 69     47%   97 29.79 29.76      
Jun 11 13:54 S 17 10 Clear CLR 91 71     52%   98 29.81 29.78      
Jun 11 05:54   10 Clear CLR 73 65     76%   74 29.83 29.8      
Jun 10 19:54   10 Partly Cloudy SCT042 84 69     61%   88 29.74 29.72      
Jun 10 07:54 SSW 11 10 Clear CLR 73 63     71%   73 29.83 29.81      
Jun 10 06:54 S 9 10 Clear CLR 70 61     73%     29.83 29.81      
Jun 07 13:54 ENE 7 10 Clear CLR 81 47     30%   80 30.08 30.06